Home   Weather   New Haven   Past weeks

Flag for USA Past Weather in New Haven, Connecticut, USA — Yesterday and Last 2 Weeks

Now
66 °F

Scattered clouds.


Feels Like: 66 °F
Forecast: 59 / 82 °F
Wind: No wind

Location: Tweed-New Haven Airport

Current Time: Jun 22, 2017 at 7:49:47 am

Latest Report: Jun 22, 2017 at 6:53 am


Visibility: 10 mi

Pressure: 30.01 "Hg

Humidity: 83%

Dew Point: 61 °F

Location of New HavenLocation

Past Weather in New Haven — Graph

°F

New Haven Temperature Yesterday

Maximum temperature yesterday: 81 °F (at 2:53 pm)
Minimum temperature yesterday: 64 °F (at 6:00 am)
Average temperature yesterday: 75 °F

High & Low Weather Summary for the Past Weeks

 TemperatureHumidityPressure
High87 °F (Jun 13, 1:53 pm)100% (Jun 8, 5:53 am)30.09 "Hg (Jun 8, 5:53 am)
Low47 °F (Jun 8, 4:53 am)32% (Jun 14, 12:53 pm)29.70 "Hg (Jun 9, 1:53 pm)
Average69 °F74%29.93 "Hg
* Reported Jun 7 5:21 am — Jun 22 5:53 am, New Haven. Weather by CustomWeather, © 2017

Note: Actual official high and low records may vary slightly from our data, if they occured in-between our weather recording intervals... More about our weather records

Advertising

New Haven Weather History for the Previous 24 Hours

Scroll right to see more
 ConditionsComfort  
Time TempWeatherWind HumidityBarometerVisibility
5:53 am
Thu, Jun 22
61 °FScattered clouds.No wind77%29.99 "Hg10 mi
9:53 pm
Wed, Jun 21
68 °FClear.6 mph83%29.92 "Hg10 mi
8:53 pm70 °FPassing clouds.2 mph78%29.88 "Hg10 mi
7:53 pm73 °FBroken clouds.10 mph61%29.88 "Hg10 mi
6:53 pm75 °FScattered clouds.5 mph61%29.85 "Hg10 mi
5:53 pm81 °FScattered clouds.5 mph45%29.85 "Hg10 mi
4:53 pm81 °FPassing clouds.9 mph45%29.84 "Hg10 mi
3:53 pm79 °FScattered clouds.9 mph48%29.85 "Hg10 mi
2:53 pm81 °FScattered clouds.12 mph48%29.86 "Hg10 mi
1:53 pm79 °FPartly sunny.14 mph54%29.88 "Hg10 mi
12:53 pm77 °FPartly sunny.14 mph54%29.90 "Hg10 mi
11:53 am77 °FPartly sunny.8 mph57%29.91 "Hg10 mi
10:53 am75 °FBroken clouds.3 mph57%29.91 "Hg10 mi
9:53 am75 °FBroken clouds.3 mph57%29.92 "Hg10 mi
8:53 am73 °FBroken clouds.3 mph65%29.93 "Hg10 mi
7:53 am72 °FScattered clouds.2 mph69%29.93 "Hg10 mi
Weather by CustomWeather, © 2017

See weather overviewHow to use our weather pages